Zurück zum Katalog

SL-12 R/B(2)

AktivGEO
NORAD 21536·ROCKET BODY·🇷🇺 Russia

Gestartet Jul 1, 1991 von Baikonur Cosmodrome

Loading…

TLE

AktuellSource: Space-Track

Epoche: Sep 14, 2026, 00:01 UTC

1 21536U 91046D   26257.00129642 -.00000059  00000-0  00000-0 0  9998
2 21536  12.7498 337.8999 0016634 252.9897 104.0863  1.00925350124699

Verfolge SL-12 R/B(2) in Echtzeit mit AllMySat

Download on the App Store